WetterOnline ( http://www.wetteronline.de )

Wetter aktuell Hamburg

Aktuelles Wetter: Bremervörde (5m)

6-stündlich | Neueste Meldungen
Ortszeit Temperatur Wetter
Sa, 23.09. 2:00 10.7° C bedeckt
Fr, 22.09. 20:00 14.2° C leichter Regen
Fr, 22.09. 14:00 18.3° C wolkenlos
Fr, 22.09. 8:00 8.5° C bedeckt
Ortszeit Temperatur Wetter
Sa, 23.09. 5:30 8.9° C Nebel
Sa, 23.09. 5:00 9.2° C Nebel
Sa, 23.09. 4:30 9.7° C Nebel
Sa, 23.09. 4:00 10.1° C Nebel
Sa, 23.09. 3:30 10.7° C Nebel
Sa, 23.09. 3:00 11.0° C Nebel
Ortszeit Relative Feuchte Sichtweite
Sa, 23.09. 2:00 97% 1.8 km
Fr, 22.09. 20:00 90% 5.0 km
Fr, 22.09. 14:00 55% 11 km
Fr, 22.09. 8:00 98% 3.1 km
Ortszeit Relative Feuchte Sichtweite
Sa, 23.09. 5:30 97% <100 m
Sa, 23.09. 5:00 97% 100 m
Sa, 23.09. 4:30 97% <100 m
Sa, 23.09. 4:00 97% 100 m
Sa, 23.09. 3:30 97% 100 m
Sa, 23.09. 3:00 98% 0.8 km
Ortszeit Niederschlagsmenge Niederschlagsart
Sa, 23.09. 2:00 0.1 l/m2 in 6 Std. Regen
Fr, 22.09. 20:00 0.1 l/m2 in 12 Std. Regen
Fr, 22.09. 14:00 0.0 l/m2 in 6 Std. -
Fr, 22.09. 8:00 0.0 l/m2 in 12 Std. -
Ortszeit Niederschlagsmenge Niederschlagsart
Sa, 23.09. 5:30 keine Meldung -
Sa, 23.09. 5:00 0.0 l/m2 in 1 Std. -
Sa, 23.09. 4:30 keine Meldung -
Sa, 23.09. 4:00 0.0 l/m2 in 1 Std. -
Sa, 23.09. 3:30 keine Meldung -
Sa, 23.09. 3:00 0.0 l/m2 in 1 Std. -
Ortszeit Stärke Spitze Richtung
km/h Bft. km/h Grad Sektor
Sa, 23.09. 2:00 4 1 7 160° S
Fr, 22.09. 20:00 4 1 14 270° W
Fr, 22.09. 14:00 7 2 11 140° SO
Fr, 22.09. 8:00 0 0 7 - -
Ortszeit Stärke Spitze Richtung
km/h Bft. km/h Grad Sektor
Sa, 23.09. 5:30 2 1 4 90° O
Sa, 23.09. 5:00 0 0 7 - -
Sa, 23.09. 4:30 2 1 6 280° W
Sa, 23.09. 4:00 2 1 6 310° NW
Sa, 23.09. 3:30 2 1 6 100° O
Sa, 23.09. 3:00 6 1 7 250° W
Ortszeit Untergrenze Bedeckung Gattung
total tief tief mittel hoch
Sa, 23.09. 2:00 1800 m 8/8 8/8 - - -
Fr, 22.09. 20:00 1140 m 7/8 7/8 - - -
Fr, 22.09. 14:00 - 0/8 0/8 - - -
Fr, 22.09. 8:00 3900 m 8/8 8/8 - - -
Ortszeit Bedeckungsgrad in Achtel und Wolkenuntergrenze
Sa, 23.09. 5:30 8(<30m) 8(1200m)
Sa, 23.09. 5:00 8(<30m)
Sa, 23.09. 4:30 8(<30m) 8(1800m)
Sa, 23.09. 4:00 8(<30m) 8(1800m)
Sa, 23.09. 3:30 2(<30m) 7(1800m)
Sa, 23.09. 3:00 1(1290m) 8(1800m)
Ortszeit Luftdruck NN (hPa) Tendenz (hPa in 3 Std.)
Sa, 23.09. 2:00 1023 + 0,4
Fr, 22.09. 20:00 1021 + 1,2
Fr, 22.09. 14:00 1020 - 1,0
Fr, 22.09. 8:00 1020 - 0,3
Ortszeit Luftdruck NN (hPa) Tendenz (hPa in 3 Std.)
Sa, 23.09. 5:30 1023 0,0
Sa, 23.09. 5:00 1023 - 0,1
Sa, 23.09. 4:30 1023 + 0,1
Sa, 23.09. 4:00 1023 + 0,2
Sa, 23.09. 3:30 1023 + 0,4
Sa, 23.09. 3:00 1023 + 0,6
Ortszeit Schneehöhe (cm)
Sa, 23.09. 2:00 -
Fr, 22.09. 20:00 -
Fr, 22.09. 14:00 -
Fr, 22.09. 8:00 -
Ortszeit Schneehöhe (cm)
Sa, 23.09. 5:30 -
Sa, 23.09. 5:00 -
Sa, 23.09. 4:30 -
Sa, 23.09. 4:00 -
Sa, 23.09. 3:30 -
Sa, 23.09. 3:00 -
Link zu dieser Seite / Seite empfehlen

Das Wetter in ...